Weather Roundup
Issued by NWS Chicago, IL

Home | Current Version | Previous Version | Text Only | Print | Product List | Glossary On
Versions: 1 2 3 4 5 6 7 8 9 10 11 12 13 14 15 16 17 18 19 20 21 22 23 24 25 26 27 28 29 30 31 32 33 34 35 36 37 38 39 40 41 42 43 44 45 46 47 48 49 50
000
NZUS59 KLOT 261808
HRRLOT

CHICAGO AREA WEATHER ROUNDUP
NATIONAL WEATHER SERVICE CHICAGO/ROMEOVILLE IL
100 PM CDT THU MAY 26 2016

NOTE: "FAIR" INDICATES FEW OR NO CLOUDS BELOW 12,000 FEET WITH NO
SIGNIFICANT WEATHER AND/OR OBSTRUCTIONS TO VISIBILITY.

* THESE STATIONS ARE NOT UNDER NWS QUALITY CONTROL. THEY ALSO MAY NOT
  REPORT WEATHER SUCH AS PRECIPITATION OR FOG.

ILZ005-006-012>014-019>023-261900-
NORTHEAST ILLINOIS

CITY           SKY/WX    TMP DP  RH WIND       PRES   REMARKS
OHARE          PTSUNNY   78  64  61 S7        29.88F HX  80
6HR MIN TEMP:  69; 6HR MAX TEMP:  78;

MIDWAY         CLOUDY    78  64  61 SW9       29.89F HX  80
6HR MIN TEMP:  70; 6HR MAX TEMP:  78; 6HR PCP: TRACE;

AURORA         MOSUNNY   79  66  64 S12       29.90F HX  81
6HR MIN TEMP:  69; 6HR MAX TEMP:  79; 6HR PCP:  0.01;

LANSING*       PTSUNNY   78  68  71 S9        29.91F HX  80
JOLIET*        MOSUNNY   79  66  63 S8        29.90F HX  81
WAUKEGAN       MOSUNNY   80  64  58 SW9       29.87F HX  82
6HR MIN TEMP:  67; 6HR MAX TEMP:  80; 6HR PCP:  0.01;

DUPAGE AIRPORT MOSUNNY   77  62  59 S12       29.89F
6HR MIN TEMP:  68; 6HR MAX TEMP:  78;

WHEELING       MOSUNNY   79  61  53 SW8       29.89F HX  80
6HR MIN TEMP:  69; 6HR MAX TEMP:  79;

KANKAKEE*      MOSUNNY   76  65  67 S10       29.92F
MORRIS*        CLOUDY    79  62  55 S6        29.89F HX  80
LEWIS AIRPORT* CLOUDY    78  62  57 SW7       29.90F HX  80
$$

WIZ051-052-058>065-066-070>072-261900-
SOUTHEAST WISCONSIN

CITY           SKY/WX    TMP DP  RH WIND       PRES   REMARKS
MILWAUKEE      CLOUDY    78  64  61 SW17      29.86F HX  80
6HR MIN TEMP:  67; 6HR MAX TEMP:  79; 6HR PCP:  0.03;

KENOSHA*       CLOUDY    80  64  58 S15G21    29.88F HX  82
RACINE*        MOSUNNY   77  66  68 S15       29.89F
BURLINGTON     MOSUNNY   77  64  63 S10G17    29.88F
WAUKESHA       SUNNY     75  61  60 SW12G17   29.88S
WEST BEND      PTSUNNY   79  61  53 SW18      29.85R HX  80
$$

INZ001>003-010>013-019-020-261900-
NORTHWEST INDIANA

CITY           SKY/WX    TMP DP  RH WIND       PRES   REMARKS
GARY*          CLOUDY    75  72  88 S9        29.94F
MICHIGAN CITY* NOT AVBL
RENSSELAER*    NOT AVBL
VALPARAISO     CLOUDY    78  69  73 S9        29.92F HX  80
$$

LMZ740>746-261900-
SOUTHERN LAKE MICHIGAN

STATION/POSITION TIME  SKY/WX   TEMP WIND        PRES    VSBY
                                AIR  DIR/SP/G
                 (UTC)          (F)  (DEG/KT/KT) (MB)    (MI)
HARRISON CRIB    1700            73  200/ 13/ 14   N/A
BURNHAM HARBOR   1800            77  220/  4/ 10   N/A
CALUMET HARBOR   1700            73  190/  8/ 12 1012.9F
BURNS HARBOR     1700            75  170/ 10/ 19 1013.5F
MICHIGAN CITY    1700            74  160/ 15/ 17   N/A
$$

ABBREVIATIONS USED IN REMARKS
   TC - TEMPERATURE IN CELSIUS
  WCI - WIND CHILL INDEX
   HX - HEAT INDEX
  VSB - VISIBILITY
$$




USA.gov is the U.S. government's official web portal to all federal, state and local government web resources and services.